Home   Weather   Pratapgarh   Past weeks

Flag for India Past Weather in Pratapgarh, Uttar Pradesh, India — Yesterday and Last 2 Weeks

Now
82 °F

Partly cloudy.


Feels Like: 92 °F
Forecast: 77 / 89 °F
Wind: No wind

Location: Lucknow / Amausi

Current Time: Sep 29, 2016 at 8:57:30 PM

Latest Report: Sep 29, 2016 at 8:00 PM


Visibility: 2 mi

Pressure: 29.68 "Hg

Humidity: 89%

Dew Point: 79 °F

Location of PratapgarhLocation

Past Weather in Pratapgarh — Graph

°F

Pratapgarh Temperature Yesterday

Maximum temperature yesterday: 91 °F (at 2:00 PM)
Minimum temperature yesterday: 79 °F (at 3:00 AM)
Average temperature yesterday: 85 °F

High & Low Weather Summary for the Past Weeks

 TemperatureHumidityPressure
High99 °F (Sep 20, 12:30 PM)100% (Sep 14, 8:30 PM)29.83 "Hg (Sep 14, 8:30 PM)
Low77 °F (Sep 24, 2:00 AM)59% (Sep 28, 2:00 PM)29.53 "Hg (Sep 20, 4:30 PM)
Average85 °F87%29.68 "Hg
* Reported Sep 14 7:30 PM — Sep 29 7:30 PM, Pratapgarh, Weather by CustomWeather, © 2016

Note: Actual official high and low records may vary slightly from our data, if they occured in-between our weather recording intervals... More about our weather records

Advertising

Pratapgarh Weather History for the Previous 24 Hours

Scroll right to see more
 ConditionsComfort  
Time TempWeatherWind HumidityBarometerVisibility
7:30 PM
Thu, Sep 29
84 °FPartly cloudy.No wind84%29.65 "Hg2 mi
7:00 PM84 °FPartly cloudy.No wind84%29.65 "Hg2 mi
6:30 PM84 °FPartly cloudy.No wind84%29.65 "Hg3 mi
6:00 PM86 °FBroken clouds.No wind79%29.65 "Hg3 mi
5:30 PM86 °FBroken clouds.No wind75%29.65 "Hg3 mi
5:00 PM86 °FBroken clouds.No wind79%29.65 "Hg3 mi
4:30 PM88 °FBroken clouds.No wind70%29.65 "Hg3 mi
4:00 PM88 °FBroken clouds.No wind70%29.65 "Hg3 mi
3:30 PM88 °FBroken clouds.2 mph75%29.65 "Hg3 mi
2:30 PM88 °FBroken clouds.No wind70%29.65 "Hg3 mi
2:00 PM88 °FBroken clouds.2 mph75%29.65 "Hg3 mi
1:30 PM88 °FBroken clouds.2 mph75%29.68 "Hg3 mi
1:00 PM88 °FBroken clouds.2 mph75%29.68 "Hg3 mi
12:30 PM88 °FBroken clouds.No wind75%29.68 "Hg3 mi
12:00 PM86 °FBroken clouds.6 mph75%29.71 "Hg3 mi
11:30 AM86 °FBroken clouds.5 mph70%29.71 "Hg2 mi
11:00 AM84 °FBroken clouds.5 mph84%29.71 "Hg2 mi
10:30 AM84 °FBroken clouds.5 mph84%29.71 "Hg2 mi
10:00 AM84 °FBroken clouds.5 mph79%29.71 "Hg2 mi
9:30 AM82 °FBroken clouds.5 mph84%29.74 "Hg2 mi
9:00 AM82 °FBroken clouds.6 mph84%29.74 "Hg2 mi
8:30 AM81 °FBroken clouds.2 mph89%29.71 "Hg2 mi
8:00 AM81 °FBroken clouds.2 mph89%29.71 "Hg2 mi
7:30 AM79 °FBroken clouds.No wind94%29.71 "Hg2 mi
7:00 AM79 °FScattered clouds.No wind94%29.71 "Hg1 mi
6:30 AM77 °FScattered clouds.No wind100%29.68 "Hg1 mi
6:00 AM77 °FPartly cloudy.No wind100%29.68 "Hg1 mi
5:30 AM77 °FPartly cloudy.No wind100%29.68 "Hg1 mi
5:00 AM77 °FPassing clouds.No wind100%29.65 "Hg1 mi
4:00 AM77 °FHaze.2 mph94%29.65 "Hg2 mi
3:00 AM77 °FHaze.2 mph94%29.65 "Hg2 mi
2:00 AM77 °FPassing clouds.2 mph94%29.65 "Hg2 mi
1:00 AM79 °FPassing clouds.No wind94%29.68 "Hg2 mi
12:00 AM79 °FPassing clouds.2 mph94%29.71 "Hg2 mi
11:00 PM
Wed, Sep 28
81 °FPassing clouds.2 mph94%29.71 "Hg2 mi
10:00 PM82 °FPassing clouds.2 mph89%29.71 "Hg2 mi
9:00 PM82 °FPassing clouds.2 mph89%29.71 "Hg2 mi
8:30 PM82 °FPassing clouds.2 mph89%29.68 "Hg2 mi
8:00 PM84 °FPassing clouds.2 mph84%29.68 "Hg2 mi
Weather by CustomWeather, © 2016

See weather overviewHow to use our weather pages